Frenchville, ME

1:49 PM EDT on April 25, 2017 (GMT -0400)
Northern Aroostook Regional

Weather History for KFVE - September, 2012

Change the Weather History Date:

Monday, September 3, 2012

  Actual Average Record
Temperature  
Mean Temperature 60 °F 58 °F  
Max Temperature 72 °F 68 °F 86 °F (1999)
Min Temperature 47 °F 49 °F 37 °F (2000)
Degree Days  
Heating Degree Days 5    
Month to date heating degree days 25  
Since 1 July heating degree days 99  
Cooling Degree Days 0    
Month to date cooling degree days 0  
Year to date cooling degree days 196  
Growing Degree Days 8 (Base 50)    
Moisture  
Dew Point 51 °F    
Average Humidity 82    
Maximum Humidity 100    
Minimum Humidity 44    
Precipitation  
Precipitation 0.00 in 0.13 in 0.74 in (2014)
Month to date precipitation 0.00 0.39  
Year to date precipitation 20.91 22.45  
Sea Level Pressure  
Sea Level Pressure 30.14 in    
Wind  
Wind Speed 4 mph (SSE)    
Max Wind Speed 8 mph    
Max Gust Speed 20 mph    
Visibility 6 miles    
Events Fog    
T = Trace of Precipitation, MM = Missing Value Source: NWS Daily Summary

Daily Weather History Graph

Daily Weather History Graph

Search for Another Location

Airport or City:

Trip Planner

Search our weather history database for the weather conditions in past years. The results will help you decide how hot, cold, wet, or windy it might be!

Date:

Astronomy

Sep. 03, 2012 Rise Set
Actual Time 5:55 AM EDT 7:08 PM EDT
Civil Twilight 5:23 AM EDT 7:39 PM EDT
Nautical Twilight 4:45 AM EDT 8:17 PM EDT
Astronomical Twilight 4:05 AM EDT 8:58 PM EDT
Moon 8:06 PM EDT (9/3) 9:17 AM EDT (9/3)
Length of Visible Light 14h 15m
Length of Day
13h 12m
Waning Gibbous, 90% of the Moon is Illuminated
Sep 3
Waning Gibbous
Sep 8
Last Quarter
Sep 15
New
Sep 22
First Quarter
Sep 29
Full

Hourly Weather History & Observations

Time (EDT) Temp. Dew Point Humidity Pressure Visibility Wind Dir Wind Speed Gust Speed Precip Events Conditions
12:53 AM 53.1 °F 52.0 °F 96% 30.14 in 10.0 mi SE 3.5 mph - N/A   Clear
1:15 AM 51.8 °F 51.8 °F 100% 30.14 in 2.5 mi SSE 3.5 mph - N/A   Partly Cloudy
1:30 AM 53.6 °F 51.8 °F 94% 30.15 in 1.5 mi Calm Calm - N/A   Partly Cloudy
1:37 AM 53.6 °F 51.8 °F 94% 30.15 in 1.0 mi Calm Calm - N/A   Mist
1:53 AM 52.0 °F 51.1 °F 97% 30.15 in 0.2 mi Calm Calm - N/A Fog Fog
2:53 AM 51.1 °F 51.1 °F 100% 30.14 in 0.2 mi Calm Calm - N/A Fog Fog
3:53 AM 48.9 °F 48.0 °F 97% 30.15 in 0.2 mi Calm Calm - N/A Fog Fog
5:53 AM 46.9 °F 46.0 °F 97% 30.18 in 0.2 mi Calm Calm - N/A Fog Fog
6:53 AM 48.9 °F 48.9 °F 100% 30.19 in 0.2 mi Calm Calm - N/A Fog Fog
7:53 AM 48.9 °F 48.9 °F 100% 30.18 in 0.2 mi SSW 3.5 mph - 0.01 in Fog Fog
8:53 AM 51.1 °F 51.1 °F 100% 30.19 in 0.2 mi South 3.5 mph - N/A Fog Fog
9:53 AM 53.1 °F 53.1 °F 100% 30.19 in 0.2 mi SE 3.5 mph - N/A Fog Fog
10:50 AM 53.6 °F 53.6 °F 100% 30.19 in 1.5 mi South 6.9 mph - N/A   Overcast
10:53 AM 54.0 °F 53.1 °F 97% 30.19 in 2.0 mi South 6.9 mph - N/A   Overcast
11:02 AM 53.6 °F 53.6 °F 100% 30.18 in 10.0 mi SSE 6.9 mph - N/A   Overcast
11:44 AM 59.0 °F 55.4 °F 88% 30.17 in 10.0 mi Variable 5.8 mph - N/A   Scattered Clouds
11:53 AM 59.0 °F 54.0 °F 83% 30.17 in 10.0 mi SSE 4.6 mph - N/A   Partly Cloudy
12:53 PM 64.0 °F 55.0 °F 73% 30.14 in 10.0 mi SE 6.9 mph - N/A   Clear
1:53 PM 68.0 °F 52.0 °F 56% 30.13 in 10.0 mi South 8.1 mph - N/A   Clear
2:53 PM 70.0 °F 52.0 °F 53% 30.12 in 10.0 mi ESE 3.5 mph - N/A   Clear
3:53 PM 69.1 °F 51.1 °F 53% 30.11 in 10.0 mi SE 5.8 mph - N/A   Partly Cloudy
4:53 PM 71.1 °F 50.0 °F 47% 30.09 in 10.0 mi Calm Calm - N/A   Partly Cloudy
5:53 PM 71.1 °F 48.0 °F 44% 30.08 in 10.0 mi Calm Calm - N/A   Partly Cloudy
6:53 PM 66.0 °F 52.0 °F 60% 30.08 in 10.0 mi ESE 3.5 mph - N/A   Clear
7:53 PM 64.0 °F 52.0 °F 65% 30.09 in 10.0 mi SSE 5.8 mph - N/A   Clear
8:53 PM 64.9 °F 51.1 °F 61% 30.09 in 10.0 mi SSE 5.8 mph - N/A   Clear
9:53 PM 61.0 °F 51.1 °F 70% 30.08 in 10.0 mi SSE 5.8 mph - N/A   Clear
10:53 PM 60.1 °F 51.1 °F 72% 30.08 in 10.0 mi SSE 3.5 mph - N/A   Clear
11:53 PM 59.0 °F 52.0 °F 78% 30.06 in 10.0 mi South 5.8 mph - N/A   Clear